TimeCST,TemperatureF,Dew PointF,Humidity,Sea Level PressureIn,VisibilityMPH,Wind Direction,Wind SpeedMPH,Gust SpeedMPH,PrecipitationIn,Events,Conditions,WindDirDegrees,DateUTC
12:37 AM,22.8,17.6,80,29.94,10.0,SW,8.1,-,N/A,,Clear,220,2013-01-08 06:37:00
12:57 AM,22.6,17.6,81,29.94,10.0,SW,9.2,-,N/A,,Clear,220,2013-01-08 06:57:00
1:17 AM,22.3,17.2,81,29.94,10.0,SW,6.9,-,N/A,,Clear,220,2013-01-08 07:17:00
1:37 AM,23.5,17.4,77,29.94,10.0,SW,6.9,-,N/A,,Clear,220,2013-01-08 07:37:00
1:57 AM,22.1,16.5,79,29.92,10.0,SW,8.1,-,N/A,,Clear,220,2013-01-08 07:57:00
2:17 AM,24.6,17.6,75,29.91,10.0,SW,6.9,-,N/A,,Clear,220,2013-01-08 08:17:00
2:37 AM,23.4,16.5,75,29.92,10.0,SW,5.8,-,N/A,,Clear,220,2013-01-08 08:37:00
2:57 AM,21.9,16.0,78,29.92,10.0,SW,5.8,-,N/A,,Clear,220,2013-01-08 08:57:00
3:17 AM,19.8,14.9,81,29.91,10.0,SSW,8.1,-,N/A,,Clear,210,2013-01-08 09:17:00
3:37 AM,21.0,15.8,80,29.90,10.0,SSW,8.1,-,N/A,,Clear,200,2013-01-08 09:37:00
3:57 AM,28.4,18.3,66,29.89,10.0,SSW,9.2,-,N/A,,Clear,200,2013-01-08 09:57:00
4:17 AM,29.3,18.1,63,29.88,10.0,SSW,8.1,-,N/A,,Clear,200,2013-01-08 10:17:00
4:37 AM,29.5,18.5,64,29.88,10.0,South,5.8,-,N/A,,Clear,180,2013-01-08 10:37:00
4:57 AM,28.0,17.8,65,29.87,10.0,South,6.9,-,N/A,,Clear,180,2013-01-08 10:57:00
5:17 AM,28.2,17.8,65,29.87,10.0,South,5.8,-,N/A,,Clear,190,2013-01-08 11:17:00
5:37 AM,28.9,17.8,63,29.86,10.0,South,8.1,-,N/A,,Clear,180,2013-01-08 11:37:00
6:17 AM,28.0,17.1,63,29.86,10.0,South,13.8,-,N/A,,Clear,180,2013-01-08 12:17:00
6:37 AM,27.7,17.6,66,29.86,10.0,South,11.5,-,N/A,,Clear,180,2013-01-08 12:37:00
6:57 AM,26.6,18.9,73,29.85,10.0,South,11.5,-,N/A,,Clear,180,2013-01-08 12:57:00
7:37 AM,24.4,18.9,79,29.83,10.0,South,12.7,-,N/A,,Clear,190,2013-01-08 13:37:00
7:56 AM,24.1,19.2,82,29.83,10.0,SSW,13.8,18.4,N/A,,Clear,200,2013-01-08 13:56:00
8:17 AM,24.3,19.9,84,29.82,10.0,SSW,15.0,-,N/A,,Clear,200,2013-01-08 14:17:00
8:57 AM,26.2,21.6,82,29.81,10.0,SSW,11.5,-,N/A,,Clear,200,2013-01-08 14:57:00
9:17 AM,26.2,21.7,83,29.82,10.0,SSW,13.8,19.6,N/A,,Clear,200,2013-01-08 15:17:00
9:37 AM,26.4,22.1,84,29.81,10.0,South,15.0,19.6,N/A,,Clear,190,2013-01-08 15:37:00
9:57 AM,27.0,22.6,84,29.81,10.0,South,13.8,19.6,N/A,,Clear,190,2013-01-08 15:57:00
10:17 AM,27.5,23.0,83,29.79,10.0,South,11.5,-,N/A,,Clear,180,2013-01-08 16:17:00
10:37 AM,27.5,23.0,83,29.80,10.0,SSW,10.4,-,N/A,,Clear,200,2013-01-08 16:37:00
10:57 AM,27.5,23.0,83,29.79,10.0,SSW,8.1,-,N/A,,Mostly Cloudy,200,2013-01-08 16:57:00
11:17 AM,27.7,23.0,83,29.77,10.0,South,10.4,-,N/A,,Overcast,170,2013-01-08 17:17:00
11:37 AM,27.5,23.2,84,29.75,10.0,SSE,9.2,-,N/A,,Overcast,160,2013-01-08 17:37:00
11:57 AM,27.1,23.0,84,29.74,10.0,SSE,10.4,-,N/A,,Overcast,160,2013-01-08 17:57:00
12:17 PM,27.7,23.0,83,29.72,10.0,South,13.8,18.4,N/A,,Overcast,180,2013-01-08 18:17:00
12:57 PM,30.0,24.6,80,29.69,10.0,South,10.4,-,N/A,,Overcast,180,2013-01-08 18:57:00
1:17 PM,30.2,25.0,81,29.69,10.0,South,8.1,-,N/A,,Overcast,180,2013-01-08 19:17:00
1:57 PM,31.1,25.5,80,29.69,7.0,SSW,11.5,-,N/A,,Mostly Cloudy,210,2013-01-08 19:57:00
2:17 PM,31.6,26.1,80,29.69,7.0,SSW,11.5,-,N/A,,Mostly Cloudy,210,2013-01-08 20:17:00
2:37 PM,31.1,26.2,82,29.71,7.0,SSW,11.5,17.3,N/A,,Scattered Clouds,210,2013-01-08 20:37:00
2:57 PM,31.3,26.6,83,29.72,7.0,SW,13.8,17.3,N/A,,Clear,230,2013-01-08 20:57:00
3:17 PM,30.6,25.5,82,29.72,7.0,SW,15.0,19.6,N/A,,Clear,230,2013-01-08 21:17:00
3:37 PM,30.2,25.0,81,29.72,7.0,SW,13.8,17.3,N/A,,Clear,230,2013-01-08 21:37:00
3:57 PM,30.2,24.6,80,29.74,10.0,WSW,11.5,-,N/A,,Clear,250,2013-01-08 21:57:00
4:17 PM,30.0,24.1,79,29.75,10.0,West,8.1,16.1,N/A,,Clear,260,2013-01-08 22:17:00
4:37 PM,30.0,23.9,78,29.75,10.0,WSW,10.4,-,N/A,,Clear,250,2013-01-08 22:37:00
4:57 PM,30.4,23.9,77,29.75,10.0,WSW,9.2,-,N/A,,Clear,250,2013-01-08 22:57:00
5:17 PM,29.3,23.7,80,29.75,10.0,WSW,6.9,-,N/A,,Clear,250,2013-01-08 23:17:00
5:37 PM,29.1,23.7,80,29.77,10.0,West,6.9,-,N/A,,Clear,280,2013-01-08 23:37:00
5:57 PM,29.7,23.9,79,29.79,10.0,West,9.2,-,N/A,,Clear,270,2013-01-08 23:57:00
6:17 PM,29.1,23.7,80,29.80,10.0,West,9.2,-,N/A,,Clear,260,2013-01-09 00:17:00
6:37 PM,29.3,23.7,80,29.82,10.0,WSW,8.1,-,N/A,,Clear,250,2013-01-09 00:37:00
6:57 PM,28.4,23.4,81,29.83,10.0,WSW,9.2,-,N/A,,Clear,250,2013-01-09 00:57:00
7:37 PM,28.8,23.7,81,29.84,10.0,West,5.8,-,N/A,,Clear,270,2013-01-09 01:37:00
7:57 PM,27.7,23.4,84,29.84,10.0,West,8.1,-,N/A,,Clear,270,2013-01-09 01:57:00
8:17 PM,28.9,24.1,82,29.85,10.0,West,8.1,-,N/A,,Clear,270,2013-01-09 02:17:00
8:37 PM,29.8,24.6,81,29.87,10.0,West,8.1,-,N/A,,Clear,270,2013-01-09 02:37:00
8:57 PM,30.2,24.6,80,29.88,10.0,WSW,12.7,16.1,N/A,,Clear,250,2013-01-09 02:57:00
9:17 PM,30.4,24.6,79,29.89,10.0,WSW,11.5,-,N/A,,Clear,250,2013-01-09 03:17:00
9:37 PM,29.5,24.4,81,29.90,10.0,WSW,11.5,17.3,N/A,,Scattered Clouds,250,2013-01-09 03:37:00
9:57 PM,31.3,25.7,80,29.90,10.0,West,11.5,16.1,N/A,,Mostly Cloudy,260,2013-01-09 03:57:00
10:17 PM,32.5,26.4,78,29.91,10.0,West,11.5,16.1,N/A,,Overcast,260,2013-01-09 04:17:00
10:37 PM,32.5,26.4,78,29.92,10.0,WSW,10.4,17.3,N/A,,Overcast,250,2013-01-09 04:37:00
10:57 PM,32.0,26.4,80,29.94,10.0,WSW,15.0,-,N/A,,Overcast,240,2013-01-09 04:57:00
11:57 PM,32.2,27.0,81,29.97,10.0,West,9.2,16.1,N/A,,Mostly Cloudy,260,2013-01-09 05:57:00